Погода в Енисейске

Погода в Енисейске : погода сейчас, прогноз погоды и архив. Всё, что Вы хотите узнать о погоде в Енисейске!

Хотите узнать прогноз погоды в Енисейске? Тогда Вам сюда: Погода в Енисейске

Поиск расширенной информации на нашем сайте:

Другие новости

Новости СМИ2

Главная страница сайта

Новости сайта

02.10.2013

Напоминаем, что на нашем новом сайте вы можете получить высокодетализированные прогнозы погоды по пунктам России, СНГ и мира (включающие важные для авиации метеовеличины, такие как направление и скорость ветра, видимость, явления погоды, количество и форма облачности, нижняя и верхняя граница облачности), а также ознакомиться с разнообразными материалами по авиационной метеорологии и подборкой полезных ссылок на эту тему.

Сайт Метеоцентр.Азия посвящён разработке технологий оптимизации авиаметеорологического обслуживания, включая проектирование и перспективное создание нескольких автоматизированных авиаметеорологических систем:
- система выпуска высокодетальных прогностических карт явлений погоды для нижнего воздушного пространства по России и ближнему зарубежью;
- система верификации прогнозов TAF (выпускаемых синоптиками официальных АМСГ РФ и ближнего зарубежья) и AUTOTAF (выпускаемых сайтом Метеоцентр.Азия) - выявление ошибок, онлайн-сопоставление с фактической погодой METAR, автоматическое внесение коррективов в прогнозы при резком отклонении фактической погоды от прогноза, подсчёт оправдываемости прогнозов по элементам и в целом;
- система обработки, анализа и отображения авиаметеорологической информации для применения провайдерами метеорологической информации.

Рекомендуем: Заказать солдатиков набор солдатиков.

Погода в Енисейске - сегодня

Время (UTC), дата Ветер
(°,м/с) 
Видим.   Явления Облачность Т
(°С)
Тd
(°С)
f(%) Тe
(°С)
Pmin
(гПа)
dP
(гПа)
Po
(мм)
O2
(г/м3)
Тmin Tmax R s Состояние
почвы
12 25.02.17 290 (З) 20000 м    9/0 средняя, верхняя 
[Ac trans|Ci sp]
-5.1 -9.2 73 -5  1019.6  -0.2  757  312    -0.4       
15 25.02.17 200 (Ю) 30000 м    9/0 средняя, верхняя 
[Ac trans|Ci sp]
-10.6 -12.6 85 -10  1020.2  0.3  757  319           
18 25.02.17 тихо ()   30000 м    9/0 средняя, верхняя 
[Ac trans|Ci sp]
-11.7 -13 90 -12  1020.2  -0.1  757  320           
21 25.02.17 290 (З) 30000 м    9/0 средняя, верхняя 
[Ac trans|Ci sp]
-11.9 -12.5 95 -12  1018.6  -0.6  756  320           
00 26.02.17 310 (СЗ) 9000 м  слаб. снег  10/0 средняя 
[Ac und]
-9.6 -10.4 94 -9  1020.2  0.7  757  317  -11.9    0.3  76  равномерный
сухой снег
100% 
03 26.02.17 310 (СЗ) 20000 м  {снег}  9/0 средняя, верхняя 
[Ac trans|Ci fib]
-9.8 -10.6 94 -12  1021.6  1.4  758  318           
06 26.02.17 280 (З) 20000 м  {снег}  9/1 1000 м средняя, верхняя 
[Cu hum|Ac trans|Ci fib]
-7.4 -10.4 79 -9  1023.1  1.6  759  315           
09 26.02.17 290 (З) 20000 м    ясно 
-4.3 -9.4 68 -4  1024.2  1.2  760  312           
12 26.02.17 тихо ()   20000 м    ясно 
-9.7 -14.4 69 -10  1026.5  2.1  762  320    -3.9  0.2     
15 26.02.17 200 (Ю) 30000 м    ясно 
-17.1 -18.3 90 -17  1028.2  1.3  763  329           
18 26.02.17 250 (З) 30000 м    ясно 
-21.3 -22.5 90 -22  1029.8  1.4  764  335           
21 26.02.17 070 (В) 30000 м    ясно 
-25.5 -26.7 90 -26  1031.4  1.4  765  342           
00 27.02.17 080 (В) 30000 м    ясно 
-28.2 -30 85 -29  1032.2  0.7  765  346  -28.2      76  равномерный
сухой снег
100% 
03 27.02.17 тихо ()   20000 м    4/0 верхняя 
[Ci fib]
-24.9 -26.8 84 -25  1033.3  1.3  766  342           
06 27.02.17 070 (В) 20000 м    9/0 средняя, верхняя 
[Ac trans|Ci fib]
-13.2 -16.7 75 -13  1033.2  0.3  767  326           
09 27.02.17 150 (ЮВ) 20000 м    9/8 2000 м средняя, верхняя 
[Ac trans|Ci fib]
-6.3 -13.8 55 -8  1032.8  767  317           
12 27.02.17 110 (В) 20000 м    9/0 средняя, верхняя 
[Ac trans|Ci fib]
-8.3 -14.7 60 -8  1033.5  0.5  767  320    -6.3       
15 27.02.17 120 (ЮВ) 30000 м    9/0 верхняя 
[Ci fib]
-10.6 -15.9 65 -10  1033.4  -0.1  767  323           
18 27.02.17 120 (ЮВ) 30000 м    10/8 600 м кучево-дожд., средняя 
[Cb cap|Ac und]
-9.3 -14.4 66 -11  1032.3  -1.1  766  321           
21 27.02.17 120 (ЮВ) 9000 м  слаб. ливневой снег  10/10 600 м кучево-дожд. 
[Cb cap]
-8.5 -10 89 -10  1030.6  -1.6  765  319           
00 28.02.17 130 (ЮВ) 8000 м  слаб. ливневой снег  10/10 600 м кучево-дожд. 
[Cb cap]
-8.1 -9.1 92 -11  1028.2  -2.3  763  318  -11    77  равномерный
сухой снег
100% 
03 28.02.17 160 (Ю) 20000 м  позёмок{ливн. осадки}  10/4 600 м кучево-дожд., средняя 
[Cb cap|Ac und]
-7.5 -8.8 90 -12  1026.6  -1.6  762  317           
06 28.02.17 140 (ЮВ) 20000 м  {ливн. осадки}  10/6 600 м кучево-дожд., средняя 
[Cb cap|Ac und]
-5.5 -7.7 84 -5  1025.7  -0.9  761  314           
09 28.02.17 150 (ЮВ) 20000 м  {ливн. осадки}  10/4 600 м кучево-дожд., средняя 
[Cb cap|Ac und]
-3.3 -5.7 83 -3  1025.1  -0.4  761  311           
12 28.02.17 080 (В) 20000 м  {ливн. осадки}  9/9 600 м кучево-дожд. 
[Cb cap]
-3.8 -5.3 89 -3  1025.2  761  312    -2.9  0.7     
Время (UTC), дата Ветер
(°,м/с) 
Видим.   Явления Облачность Т
(°С)
Тd
(°С)
f(%) Тe
(°С)
Pmin
(гПа)
dP
(гПа)
Po
(мм)
O2
(г/м3)
Тmin Tmax R s Состояние
почвы

Для получения пояснительной информации подведите курсор к названию столбца.

ПОГОДА в Енисейске - архив

Всё, что Вы хотите узнать о погоде в Енисейске - удобно и подробно!

Выберите нужную дату (начиная с 1 января 2015* года) и нажмите кнопку "Найти".
Будут отображены архивные сводки погоды по пункту Енисейск, начиная с указанной даты.


Отображать данные в формате CSV (для использования в таблицах Excel)


Внимание! Наш архив погоды предназначен исключительно для личного некоммерческого использования в познавательных целях. Если Вам необходимы официальные справки о состоянии погоды (для производственных, юридических, коммерческих и т.п. целей), обращайтесь в органы Росгидромета.

*Примечание: данная дата относится к архиву по метеостанциям СССР (Россия, СНГ, Балтия).
Архив по метеостанциям Зарубежной Европы и Азии (кроме Китая) хранится 10 дней, по другим регионам земного шара (Китай, Африка, Америка, Австралия, Океания) - 1 день.

Енисейск - район местоположения метеостанции


Название, широта, долгота, высота метеостанции:
Енисейск 58.4°ш. 92.2°д. 79 м над ур. моря [Российская Федерация]

Дополнительная информация

В oтличие oт бoльшинства пoгoдных сайтoв мы публикуем пoдрoбную метеoинфoрмацию в детальнoм прoфессиoнальнoм фoрмате.

Характеристики температуры и влажнoсти вoздуха измеряются на высoте 2 м в тени вдали oт зданий и деревьев.
Скoрoсть ветра измеряется на высoте 10 м (на урoвне рoста челoвека скoрoсть ветра ниже в 1.5-2 раза). Если метеoстанция нахoдится в гoрoде или в лесу, тo скoрoсть ветра занижена на 2-4 м/с пo сравнению с oткрытым местoм. Скoрoсть ветра над акватoриями крупных рек и oзёр, а также на вершинах хoлмoв на 2-5 м/с выше, чем в oбычных услoвиях.
Атмoсфернoе давление в разных тoчках местнoсти мoжет значительнo oтличаться oт давления на метеoстанции, в зависимoсти oт услoвий рельефа (при пoдъёме на 10 м давление пoнижается примернo на 1 мм рт.ст.).